OE3GWU-13 Weather Reports


Display with metric or nautical units.
time (UTC)temp
F
wind
direction
speed
MPH
gust
MPH
rain 1hr
in
rain 24hr
in
rain mn
in
humidity
%
barometer
mb
20260507143004 58 166 1.0 6.0 0.00 0.00 0.00 60 1016.6
20260507142004 58 214 2.0 3.0 0.00 0.00 0.00 58 1016.6
20260507141004 57 335 0.0 3.0 0.00 0.00 0.00 62 1016.6
20260507140005 57 357 1.0 3.0 0.00 0.00 0.00 58 1016.6
20260507135004 58 320 1.0 9.0 0.00 0.00 0.00 57 1016.6
20260507134004 56 6 4.0 9.0 0.00 0.00 0.00 59 1016.6
20260507133005 60 358 3.0 10.0 0.00 0.00 0.00 56 1016.6
20260507132004 57 13 2.0 9.0 0.00 0.00 0.00 59 1016.6
20260507125004 58 127 2.0 6.0 0.00 0.00 0.00 64 1016.3
20260507123004 59 354 1.0 5.0 0.00 0.00 0.00 59 1016.3
20260507121004 56 349 2.0 5.0 0.00 0.00 0.00 66 1016.6
20260507120005 56 238 3.0 6.0 0.00 0.00 0.00 66 1016.3
20260507115004 57 205 2.0 9.0 0.00 0.00 0.00 64 1016.3
20260507113004 56 201 3.0 7.0 0.00 0.00 0.00 62 1016.6
20260507111004 57 226 10.0 14.0 0.00 0.00 0.00 62 1016.6
20260507110005 60 194 7.0 9.0 0.00 0.00 0.00 62 1016.6
20260507105004 57 327 2.0 5.0 0.00 0.00 0.00 62 1016.6
20260507103004 56 234 3.0 8.0 0.00 0.00 0.00 67 1016.6
20260507101004 53 334 2.0 5.0 0.00 0.00 0.00 71 1016.6
20260507100005 55 161 3.0 8.0 0.00 0.00 0.00 68 1016.7
20260507092004 56 177 5.0 8.0 0.00 0.00 0.00 67 1016.3
20260507091004 54 334 2.0 6.0 0.00 0.00 0.00 67 1016.3
20260507090005 56 183 3.0 6.0 0.00 0.00 0.00 68 1016.3
20260507085004 54 211 5.0 9.0 0.00 0.00 0.00 73 1016.3
20260507082004 53 7 2.0 5.0 0.00 0.00 0.00 76 1015.9
20260507080005 51 355 2.0 3.0 0.00 0.00 0.00 77 1015.6
20260507075004 51 174 2.0 5.0 0.00 0.00 0.00 80 1015.6
20260507074004 52 294 2.0 8.0 0.00 0.00 0.00 79 1015.6
20260507073004 51 168 7.0 9.0 0.00 0.00 0.00 80 1015.6
20260507072004 50 355 1.0 6.0 0.00 0.00 0.00 82 1015.6
20260507071004 49 184 2.0 8.0 0.00 0.00 0.00 84 1015.6
20260507070009 49 193 6.0 8.0 0.00 0.00 0.00 85 1015.6
20260507063008 47 234 2.0 6.0 0.00 0.00 0.00 87 1015.6
20260507061004 46 204 3.0 6.0 0.00 0.00 0.00 90 1015.6
20260507060004 45 207 0.0 3.0 0.00 0.00 0.00 91 1015.6
20260507053005 46 294 1.0 6.0 0.00 0.00 0.00 92 1015.0
20260507050005 44 332 2.0 6.0 0.00 0.00 0.00 93 1014.6
20260507044004 44 306 3.0 5.0 0.00 0.00 0.00 94 1014.6
20260507043004 44 307 2.0 2.0 0.00 0.00 0.00 94 1014.6
20260507041004 44 334 2.0 6.0 0.00 0.00 0.00 94 1014.2
20260507034004 44 233 2.0 6.0 0.00 0.01 0.00 96 1013.9
20260507033004 44 275 2.0 6.0 0.00 0.01 0.00 96 1013.9
20260507025004 45 331 1.0 3.0 0.00 0.01 0.00 95 1013.5
20260507024004 45 271 2.0 3.0 0.00 0.01 0.00 95 1013.9
20260507023004 45 242 1.0 5.0 0.00 0.01 0.00 95 1013.5
20260507022004 46 188 1.0 6.0 0.00 0.01 0.00 95 1013.5
20260507014004 46 299 2.0 5.0 0.00 0.01 0.00 95 1013.5
20260507013004 46 216 2.0 3.0 0.00 0.01 0.00 95 1013.5
20260507012004 47 304 1.0 3.0 0.00 0.01 0.00 95 1013.5
20260507011004 47 192 2.0 5.0 0.00 0.01 0.00 95 1013.2
20260507010005 47 332 2.0 5.0 0.00 0.01 0.00 95 1013.2
20260507004004 47 345 0.0 3.0 0.00 0.01 0.00 95 1013.2
20260507001004 48 320 1.0 3.0 0.00 0.01 0.00 95 1013.2
20260507000004 48 205 2.0 5.0 0.00 0.01 0.00 95 1013.2
20260506234004 48 258 3.0 8.0 0.00 0.01 0.01 95 1013.2
20260506233004 48 344 2.0 6.0 0.00 0.01 0.01 95 1013.2
20260506232004 48 209 2.0 8.0 0.00 0.01 0.01 95 1013.2
20260506230004 48 201 3.0 6.0 0.00 0.01 0.01 94 1012.9
20260506225004 49 212 3.0 8.0 0.00 0.01 0.01 94 1012.9
20260506224004 49 335 2.0 5.0 0.00 0.01 0.01 94 1012.9
20260506222004 49 222 2.0 5.0 0.00 0.01 0.01 94 1012.9
20260506220004 49 181 2.0 7.0 0.00 0.01 0.01 95 1012.5
20260506215006 49 290 3.0 8.0 0.00 0.01 0.01 94 1012.2
20260506214004 49 227 2.0 7.0 0.00 0.01 0.01 93 1012.2
20260506212043 49 315 1.0 1.0 0.00 0.01 0.01 90 1011.9
20260506211004 49 322 0.0 1.0 0.00 0.01 0.01 90 1011.5
20260506210004 49 345 0.0 3.0 0.00 0.01 0.01 91 1011.5
20260506205004 49 236 2.0 3.0 0.00 0.02 0.01 92 1011.9
20260506203004 50 7 1.0 2.0 0.00 0.02 0.01 91 1011.2
20260506202004 51 329 1.0 2.0 0.00 0.02 0.01 89 1011.2
20260506195004 52 36 1.0 5.0 0.00 0.02 0.01 82 1010.8
20260506194004 53 143 3.0 5.0 0.00 0.02 0.01 83 1010.8
20260506193004 53 99 2.0 7.0 0.00 0.02 0.01 82 1010.7
20260506192004 54 194 1.0 5.0 0.00 0.02 0.01 80 1010.5
20260506190005 59 328 1.0 3.0 0.00 0.02 0.01 58 1009.8
20260506185004 59 333 3.0 7.0 0.00 0.02 0.01 57 1009.5
20260506184004 60 191 5.0 8.0 0.00 0.02 0.01 55 1009.5
20260506183005 60 262 5.0 8.0 0.00 0.02 0.01 55 1009.1
20260506182004 60 201 3.0 6.0 0.00 0.02 0.01 56 1008.5
20260506175004 62 275 3.0 5.0 0.00 0.02 0.01 52 1008.8
20260506171004 64 209 3.0 6.0 0.00 0.02 0.01 49 1008.5
20260506170004 64 210 5.0 6.0 0.00 0.02 0.01 48 1008.5
20260506164004 64 238 5.0 10.0 0.00 0.02 0.01 47 1008.5
20260506163004 65 204 7.0 10.0 0.00 0.02 0.01 48 1008.8
20260506162004 65 221 3.0 3.0 0.00 0.02 0.01 50 1008.8
20260506161004 66 208 2.0 6.0 0.00 0.02 0.01 50 1008.8
20260506160005 66 233 3.0 5.0 0.00 0.02 0.01 48 1008.8
20260506155004 65 196 2.0 5.0 0.00 0.02 0.01 49 1009.1
20260506154004 64 277 2.0 2.0 0.00 0.02 0.01 50 1009.1
20260506153004 64 211 2.0 3.0 0.00 0.02 0.01 49 1009.1
20260506151004 64 247 3.0 5.0 0.00 0.02 0.01 48 1009.6